Regional Weather Roundup
Issued by NWS

Home | Current Version | Previous Version | Text Only | Print | Product List | Glossary On
Versions: 1 2 3 4 5 6 7 8 9 10 11 12 13 14 15 16 17 18 19 20 21 22 23 24 25 26 27 28 29 30 31 32 33 34 35 36 37 38 39 40 41 42 43 44 45 46 47 48 49 50
000
ASUS44 KMEG 241310
RWRTN
TENNESSEE HOURLY STATE WEATHER ROUNDUP
NATIONAL WEATHER SERVICE MEMPHIS TN
800 AM CDT SAT JUN 24 2017

TNZ002-004-019-021-049-052-054-088>092-241400-
WEST TENNESSEE

CITY           SKY/WX    TMP DP  RH WIND       PRES   REMARKS
MEMPHIS INTL   CLOUDY    73  65  75 N10       30.07R
NWS MEMPHIS      N/A     72 N/A N/A MISG        N/A
JACKSON        SUNNY     74  63  68 N9        30.06R
SOMERVILLE     SUNNY     72  64  78 N8        30.06R
COVINGTON      SUNNY     72  64  78 N6        30.08R
UNION CITY     SUNNY     72  63  73 N8        30.07R
BOLIVAR        SUNNY     72  64  78 VRB5G13   30.05R
PARIS          SUNNY     70  63  78 VRB6      30.06R
HUNTINGDON     SUNNY     72  63  73 CALM      30.05R
LEXINGTON      SUNNY     72  64  78 N12       30.04R
SELMER         SUNNY     72  66  83 N7        30.04R
SAVANNAH       MOSUNNY   75  70  83 N8        30.03R
$$

TNZ008-025-027-028-033-062-065-066-241400-
NORTH MIDDLE TENNESSEE

CITY           SKY/WX    TMP DP  RH WIND       PRES   REMARKS
NASHVILLE      PTSUNNY   74  66  76 NW8       30.03R
PORTLAND       SUNNY     70  68  94 NW5       30.03R
CLARKSVILLE    CLOUDY    70  62  76 N8        30.05R
SMYRNA         CLOUDY    73  67  81 NW8       30.04R
COOKEVILLE     PTSUNNY   73  70  88 VRB5      30.02R
GALLATIN       SUNNY     73  64  73 NW6       30.05R
CROSSVILLE     CLOUDY    71  68  90 N8        30.05R
$$

TNZ061-075-076-078-094-096-097-241400-
SOUTH MIDDLE TENNESSEE

CITY           SKY/WX    TMP DP  RH WIND       PRES   REMARKS
FAYETTEVILLE   CLOUDY    73  72  94 N7        30.03R
TULLAHOMA        N/A     72  70  94 NW10      30.05R
WINCHESTER     CLOUDY    70  70 100 W3          N/A
COLUMBIA       MOSUNNY   73  72  94 NW6       30.02R
SHELBYVILLE    CLOUDY    73  68  83 N7        30.03R
$$

TNZ017-018-042-046-047-241400-
NORTHEAST TENNESSEE

CITY           SKY/WX    TMP DP  RH WIND       PRES   REMARKS
TRI CITIES     LGT RAIN  69  66  90 CALM      30.00S
ELIZABETHTON   CLOUDY    70  66  88 CALM      30.01R
$$

TNZ012-013-036-069-073-074-241400-
CENTRAL EAST TENNESSEE

CITY           SKY/WX    TMP DP  RH WIND       PRES   REMARKS
KNOXVILLE      PTSUNNY   72  69  90 SW6       29.98R
OAK RIDGE      CLOUDY    71  68  90 CALM      30.00R
DOWNTOWN KNOXV PTSUNNY   72  70  94 CALM      29.98R
MORRISTOWN     CLOUDY    70  70 100 NE5       29.99R
JACKSBORO      MOSUNNY   73  72  94 E6        30.03R
$$

TNZ083-085-099-241400-
SOUTHEAST TENNESSEE

CITY           SKY/WX    TMP DP  RH WIND       PRES   REMARKS
CHATTANOOGA    CLOUDY    75  72  90 SW5       30.00R FOG
$$

SKY/WX REPORTED AS FAIR MEANS FEW OR NO CLOUDS BELOW
12 THOUSAND FEET.





USA.gov is the U.S. government's official web portal to all federal, state and local government web resources and services.